Theta_e
325 328 329 328 329 329 328 328 326 325 324 322 321 317 311 310 309 308 307 307 306 306 305 305 305 304 304 304 304 305 305 305 304 303 302 302 302 303 305 307 310 312 314
329 330 329 329 329 327 326 326 326 325 322 318 313 310 309 307 306 304 304 304 304 304 303 303 303 303 304 304 304 302 301 300 300 299 299 299 299 299 299 300 301 303 303
331 331 330 328 327 326 326 325 325 324 317 311 311 308 306 304 303 303 303 303 303 303 302 303 303 302 301 300 300 300 299 298 298 298 298 298 297 298 298 298 299 299 299
332 330 328 327 326 326 326 324 323 316 311 312 310 307 305 304 303 302 302 302 302 302 302 301 301 299 298 298 298 297 297 297 297 297 297 297 297 297 297 297 298 298 298
330 329 327 327 327 326 325 324 317 311 312 312 310 307 305 303 302 302 301 302 301 300 300 299 298 298 297 297 297 297 297 296 296 296 296 296 296 296 297 297 298 302 304
330 329 328 328 327 326 325 322 311 312 312 311 309 305 304 302 300 300 300 300 299 299 299 298 297 297 296 296 296 295 296 296 295 295 295 295 295 296 298 302 304 306 306
331 329 328 328 328 326 325 312 311 313 312 311 308 304 302 302 301 301 300 300 299 298 298 297 296 296 296 295 295 295 295 295 295 294 294 294 295 297 300 302 304 304 305
332 330 329 329 329 326 321 311 312 312 311 309 306 304 302 301 301 302 300 299 299 297 296 296 296 295 295 295 294 294 293 293 293 293 293 294 295 299 300 301 302 303 304
332 330 330 330 329 326 314 311 312 312 311 309 305 302 300 301 301 299 298 298 297 297 297 296 295 295 294 294 294 293 293 292 292 293 296 296 297 298 299 300 301 302 302
330 329 329 329 328 322 311 311 311 311 310 307 304 301 298 297 297 297 297 297 297 296 296 295 294 294 293 293 293 292 292 291 292 294 295 296 297 298 298 299 300 300 301
329 326 327 327 324 314 310 310 311 311 309 305 302 299 298 297 295 295 295 296 295 295 294 293 293 292 292 292 292 291 291 291 292 293 294 295 296 296 297 298 299 299 299
326 325 325 325 317 311 310 310 310 309 307 303 300 298 297 296 294 294 293 293 293 294 292 292 292 292 292 291 291 291 290 290 291 292 292 293 294 295 296 296 296 296 296
324 323 321 315 311 310 310 309 309 307 303 300 298 297 296 295 294 292 292 292 291 292 291 291 291 290 291 290 290 290 289 290 290 290 291 292 293 293 293 293 293 294 295
323 320 316 311 309 309 309 308 307 304 301 298 297 296 295 294 293 292 291 290 290 290 290 290 290 289 289 290 289 289 288 288 288 289 290 291 291 291 291 291 292 292 293
318 315 310 308 308 308 308 306 304 301 298 297 296 295 294 293 292 291 290 290 289 289 289 289 288 288 287 287 287 287 287 287 288 289 289 290 290 290 290 290 291 291 292
314 311 310 306 308 307 305 303 300 298 296 295 295 294 293 292 291 290 289 289 288 288 288 287 287 287 287 287 287 287 286 287 287 288 289 289 289 289 290 290 290 291 291
310 308 308 307 305 304 303 300 297 296 295 295 294 293 293 291 290 289 289 288 287 287 287 287 287 287 287 287 286 287 286 287 287 287 287 288 288 289 289 290 290 290 291
306 307 305 305 302 302 300 298 296 295 295 294 293 292 291 290 289 288 288 287 287 287 286 287 287 287 286 286 285 286 287 286 285 286 287 287 287 288 288 289 289 290 290
306 304 304 303 302 300 297 296 295 294 294 293 292 291 290 289 288 288 287 287 286 286 286 286 286 285 285 285 286 286 285 285 285 285 285 286 286 287 288 288 288 289 289
305 304 301 301 300 298 296 295 294 294 293 292 290 289 288 288 288 287 287 287 287 286 286 286 286 286 285 286 285 285 285 285 284 284 284 286 286 285 286 286 286 287 287
302 300 301 300 297 296 295 294 293 293 291 289 288 288 288 287 287 287 287 287 287 287 286 286 286 285 286 285 285 285 285 284 284 285 285 285 284 285 285 286 286 286 286
301 301 300 297 295 294 294 293 293 291 289 288 288 287 287 286 286 287 287 287 287 286 286 285 286 286 286 285 285 284 284 284 284 285 284 284 284 285 285 285 286 286 287
301 300 297 294 294 294 293 292 291 289 288 287 286 286 286 286 286 286 286 286 286 286 286 285 285 284 284 284 284 284 285 285 284 284 283 283 285 284 285 285 286 286 287
300 296 294 294 293 293 292 290 288 288 287 286 285 285 286 286 286 286 286 286 286 285 285 284 284 284 284 284 285 285 285 284 284 284 283 283 284 284 285 285 286 287 288
297 295 293 292 292 291 290 289 287 287 286 284 284 284 285 285 285 286 286 286 285 285 284 283 283 284 284 284 284 284 283 283 283 283 283 282 283 282 284 285 286 286 286
293 292 292 292 291 289 288 287 287 286 284 284 284 284 284 285 285 286 286 286 285 284 283 283 283 283 284 283 284 283 283 282 282 282 284 282 282 281 282 283 285 286 287
Wind_Speed
12 9 12 9 10 9 11 9 7 6 6 5 8 10 10 12 12 14 16 17 15 14 14 15 15 15 15 15 15 14 14 15 16 17 18 19 20 20 20 20 20 20 21
11 13 13 12 11 9 8 10 9 6 6 6 8 11 13 14 15 14 15 16 14 12 13 13 13 13 13 13 14 16 17 17 19 20 20 20 21 22 22 22 23 23 23
15 17 14 12 11 7 7 9 9 9 7 6 10 11 13 13 11 14 12 14 14 11 10 10 11 12 14 16 16 17 20 22 22 21 22 22 21 23 23 22 24 24 25
23 20 16 15 13 10 6 7 7 6 6 8 9 10 11 11 11 11 10 12 13 12 11 10 12 14 17 18 19 20 21 22 22 22 22 22 22 23 24 23 23 23 24
23 20 18 16 14 11 8 8 7 6 6 7 9 10 12 12 11 9 10 10 9 11 14 16 15 19 18 18 20 21 21 21 22 22 22 22 24 24 24 24 24 23 23
24 22 20 18 16 13 10 9 7 6 6 7 8 9 11 11 10 9 10 10 12 11 16 18 20 19 18 23 23 22 24 22 22 23 23 23 24 24 24 23 22 23 23
27 26 22 21 17 15 12 10 8 7 6 7 7 8 8 8 9 10 7 8 12 19 17 21 18 21 23 25 22 23 25 23 25 25 25 26 26 25 26 25 25 26 26
30 27 25 23 19 15 13 11 8 7 6 6 7 7 3 7 8 8 15 14 16 16 20 19 23 25 25 24 24 26 23 25 27 26 25 25 28 27 26 27 27 28 28
32 30 28 24 20 16 15 11 8 8 7 6 7 4 2 3 10 8 9 14 14 18 21 23 28 29 27 26 27 25 26 29 28 27 25 28 28 29 29 29 29 30 31
32 29 27 24 20 17 15 12 9 6 7 8 8 6 6 7 5 7 6 10 14 18 22 28 28 27 29 27 27 26 28 28 27 27 28 31 31 30 30 31 31 32 33
31 30 28 24 20 18 15 11 8 6 7 8 8 9 9 8 8 9 19 18 20 23 25 24 26 28 26 27 27 29 28 28 26 27 31 31 30 31 32 31 32 33 33
33 30 27 24 21 18 15 11 8 7 7 8 9 9 9 9 8 12 19 26 28 30 27 27 24 23 24 23 24 28 32 29 26 31 31 31 32 32 32 33 34 35 35
34 32 28 24 21 18 13 9 7 7 8 9 9 10 11 11 13 15 18 23 28 34 34 29 24 24 22 26 27 29 33 30 32 31 34 32 32 33 35 34 34 34 34
33 31 27 22 19 15 11 8 7 7 8 9 10 11 12 13 14 16 18 21 29 32 35 30 32 28 22 23 27 35 41 40 36 33 32 32 34 34 35 34 35 36 34
32 29 25 20 18 13 9 7 7 8 9 10 11 13 14 15 17 17 19 21 22 25 32 33 30 26 34 35 35 37 40 39 31 34 32 33 35 34 35 38 37 35 34
32 28 22 19 16 11 7 6 7 7 9 11 13 14 15 17 18 19 21 22 23 26 34 35 38 37 35 33 37 35 34 33 36 32 34 34 34 38 32 33 35 36 36
27 24 20 17 12 8 6 5 6 8 10 12 14 16 18 19 20 21 23 24 24 25 32 39 38 34 32 33 38 33 37 36 37 34 36 34 31 32 36 34 35 36 37
25 21 18 14 9 6 4 5 7 9 12 14 15 17 19 20 22 23 24 24 24 27 30 36 35 33 33 39 37 36 35 40 41 32 29 31 36 33 35 35 35 35 35
23 19 15 11 7 4 4 6 8 10 13 15 17 18 20 22 24 25 25 25 28 30 28 32 39 38 39 37 37 39 42 38 30 35 35 35 35 34 33 35 32 33 35
20 17 12 7 4 3 5 7 10 12 14 16 17 19 22 23 24 25 28 28 26 29 31 35 38 41 37 35 38 38 39 34 45 42 42 36 33 37 35 33 33 33 32
18 12 7 4 3 5 6 9 12 14 16 17 18 20 21 23 23 22 21 23 26 28 31 34 36 39 35 37 36 33 38 45 45 43 32 43 41 41 37 35 34 32 31
14 8 4 2 3 6 8 11 14 15 17 19 20 20 22 24 24 20 22 22 22 26 30 36 39 37 40 37 34 36 46 45 43 37 36 49 42 41 41 40 37 34 34
10 5 1 2 6 9 10 14 15 17 19 20 21 21 23 24 25 25 24 24 26 28 30 33 37 37 39 39 39 44 41 40 42 46 43 45 42 47 45 43 41 38 33
6 3 1 5 8 11 13 14 17 19 20 20 20 20 20 23 23 23 25 27 30 35 35 32 33 35 35 37 36 36 35 40 44 44 37 37 47 48 49 48 42 30 27
3 0 3 7 10 12 16 16 18 20 22 21 19 20 22 21 21 21 25 31 36 38 39 36 29 29 29 30 27 30 33 37 43 43 43 39 40 47 50 47 38 34 37
1 2 5 9 12 13 15 19 22 23 23 22 22 22 21 20 22 23 26 32 37 39 34 32 34 33 27 29 28 26 27 33 39 44 39 37 43 38 33 40 39 43 39
Wind_Direction
200 168 180 209 159 193 211 228 260 265 277 279 296 306 306 301 299 291 293 293 295 288 285 285 295 299 298 299 300 303 304 304 302 300 299 298 296 294 292 289 285 281 280
179 185 197 184 196 218 243 247 262 274 278 292 297 299 304 302 302 298 292 291 292 293 287 292 297 300 302 301 301 302 303 304 304 303 301 297 294 293 291 289 286 283 280
184 195 211 211 208 213 241 243 250 260 275 297 303 304 301 300 298 290 287 285 289 295 291 295 297 299 300 300 299 299 301 303 302 301 300 300 297 295 292 289 287 286 283
203 213 210 206 209 209 232 237 239 244 274 301 310 309 306 310 303 288 284 275 292 297 294 296 300 302 303 300 300 301 302 302 301 301 299 298 297 293 293 293 290 286 285
211 210 207 211 213 229 234 228 232 257 288 307 317 317 318 316 307 289 277 282 279 286 300 303 298 302 303 308 309 307 305 305 303 303 301 300 298 296 295 295 295 295 293
211 209 211 210 219 230 237 230 224 258 289 313 327 321 322 324 316 302 282 288 299 305 304 301 301 301 305 307 309 307 307 305 300 300 301 300 298 299 300 301 300 298 297
216 211 212 215 219 225 231 222 234 264 292 318 325 331 318 323 319 315 297 288 293 304 306 306 303 307 308 306 307 308 303 301 302 303 303 300 302 302 302 302 299 296 293
219 211 212 213 219 225 226 220 241 266 293 321 334 340 354 310 300 313 307 296 296 293 299 302 305 307 308 309 309 306 298 301 301 302 301 303 304 306 306 302 298 295 291
220 210 209 213 215 222 222 216 237 268 292 314 331 343 338 261 299 291 289 284 299 297 305 302 306 310 311 309 309 305 304 306 304 307 310 311 311 309 305 302 297 293 290
214 209 207 208 218 219 213 220 234 259 294 311 317 324 311 284 292 291 268 260 279 278 286 299 300 304 308 311 309 307 306 305 304 306 308 308 308 306 304 300 297 294 289
214 208 205 207 212 212 211 218 236 263 287 302 312 313 308 298 289 278 292 296 287 286 297 300 305 306 309 314 314 310 305 305 301 304 306 306 304 302 300 297 293 291 289
204 202 202 207 206 209 212 220 240 268 288 300 305 303 303 298 277 266 278 293 298 306 307 309 311 316 310 313 303 298 296 300 299 302 303 302 301 300 297 294 293 291 288
196 200 201 199 200 205 209 221 242 271 290 300 303 305 305 299 294 289 286 294 298 306 310 312 314 309 300 293 292 288 292 298 299 301 302 301 299 297 295 295 293 292 289
199 196 197 199 201 202 209 226 256 278 292 299 303 306 303 302 298 297 296 297 304 306 306 310 312 316 299 288 288 293 293 297 300 301 301 300 298 296 295 294 292 291 289
192 192 193 192 197 200 210 238 265 289 300 307 310 308 306 305 302 300 299 299 298 297 301 308 309 302 303 305 305 304 301 302 303 301 300 299 298 297 296 294 293 290 290
190 190 189 188 195 199 216 251 278 296 303 306 307 306 303 302 302 300 299 299 296 292 289 296 304 307 309 307 305 310 312 308 306 301 301 300 296 296 296 295 292 292 291
186 184 187 191 189 196 225 264 290 299 301 303 304 304 305 304 304 304 303 301 298 296 292 297 303 308 305 305 312 310 308 307 304 301 302 299 298 297 296 294 293 292 290
178 182 179 185 188 208 247 278 291 299 304 305 306 305 305 304 305 302 301 300 296 294 296 300 303 306 306 309 311 313 313 310 308 307 302 297 298 298 296 297 295 293 291
175 174 179 180 193 224 265 285 297 303 307 308 308 307 308 306 306 306 302 297 297 298 301 300 304 310 313 314 318 314 314 312 305 299 301 301 300 300 300 299 295 293 290
172 175 172 181 205 259 283 299 306 309 310 310 308 306 306 304 305 304 302 305 310 311 311 310 308 312 313 313 313 311 311 304 306 308 310 307 307 307 307 302 303 301 296
164 160 167 189 253 285 305 311 313 313 311 310 309 306 304 301 297 300 302 302 306 308 309 307 310 308 308 310 312 312 302 306 311 314 311 313 312 316 314 317 317 314 304
157 162 170 235 284 307 314 315 314 315 317 316 314 310 308 308 310 301 301 302 302 305 304 306 307 306 310 310 305 305 308 309 306 312 306 310 316 315 319 321 318 309 302
150 156 185 286 313 316 316 315 319 321 319 318 318 314 310 311 312 313 312 307 304 303 304 303 303 304 302 305 305 306 309 308 300 305 307 308 318 314 318 316 318 318 309
145 142 346 311 313 312 316 320 319 319 321 320 316 313 311 308 311 312 310 305 304 303 307 308 301 299 299 302 304 308 305 300 300 305 311 300 313 312 316 315 317 318 322
110 316 305 317 314 316 318 318 320 320 320 321 318 312 308 310 310 313 308 307 306 308 309 308 302 301 302 301 300 302 299 303 303 306 308 306 310 310 313 314 321 324 321
182 325 320 319 318 319 322 323 324 324 324 324 324 325 326 316 314 312 309 310 308 305 314 316 311 313 314 316 315 310 306 302 302 305 314 307 311 313 313 312 314 318 320